Flag for Germany Weather for the Past 2 Weeks in Bornheim (Rheinland), North Rhine-Westphalia, Germany

Now
51 °F

Overcast.


Feels Like: 51 °F
Forecast: 53 / 74 °F
Wind: 3 mph from East

Location: Aachen-Orsbach

Current Time: May 6, 2016 at 2:15:06 AM

Latest Report: May 6, 2016 at 1:00 AM


Visibility: 22 mi

Pressure: 30.06 "Hg

Humidity: 70%

Dew Point: 42 °F

Location of Bornheim (Rheinland)Location

Historic Weather in Bornheim (Rheinland) — Graph

°F

Bornheim (Rheinland) Temperature Yesterday

Maximum temperature yesterday: 65 °F (at 6:00 PM)
Minimum temperature yesterday: 39 °F (at 6:00 AM)
Average temperature yesterday: 53 °F

High & Low Weather Summary for the Past Weeks

 TemperatureHumidityPressure
High65 °F (May 5, 6:00 PM)97% (Apr 26, 4:00 PM)30.42 "Hg (Apr 26, 4:00 PM)
Low32 °F (Apr 25, 3:00 AM)35% (Apr 21, 3:00 PM)29.58 "Hg (Apr 26, 12:00 PM)
Average45 °F72%30.05 "Hg
* Reported Apr 21 1:00 AM — May 6 1:00 AM, Bornheim (Rheinland), Weather by CustomWeather, © 2016

Note: Actual official high and low records may vary slightly from our data, if they occured in-between our weather recording intervals... More about our weather records

Advertising

Bornheim (Rheinland) Weather History for the Previous 24 Hours

Scroll right to see more
 ConditionsComfort  
Time TempWeatherWind HumidityBarometerVisibility
1:00 AM
Fri, May 6
51 °FOvercast.3 mph70%30.06 "Hg22 mi
12:00 AM53 °FPassing clouds.3 mph68%30.06 "Hg1 mi
10:00 PM
Thu, May 5
55 °FPassing clouds.3 mph62%30.08 "Hg37 mi
9:00 PM56 °FPassing clouds.3 mph62%30.08 "Hg43 mi
7:00 PM64 °FSunny.8 mph44%30.09 "Hg13 mi
6:00 PM65 °FSunny.8 mph44%30.09 "Hg22 mi
4:00 PM64 °FSunny.8 mph44%30.14 "Hg14 mi
3:00 PM62 °FSunny.8 mph44%30.17 "Hg9 mi
1:00 PM60 °FScattered clouds.5 mph39%30.21 "Hg14 mi
12:00 PM58 °FSunny.7 mph37%30.24 "Hg14 mi
11:00 AMN/APassing clouds.7 mphN/AN/A10 mi
10:00 AM55 °FPartly sunny.6 mph40%30.27 "Hg19 mi
9:00 AM53 °FOvercast.3 mph46%30.28 "Hg22 mi
7:00 AM41 °FPartly sunny.5 mph70%30.31 "Hg37 mi
6:00 AM39 °FOvercast.5 mph72%30.32 "Hg28 mi
4:00 AM43 °FOvercast.5 mph62%30.32 "Hg37 mi
3:00 AM42 °FPassing clouds.3 mph72%30.33 "Hg22 mi
2:00 AMN/APassing clouds.7 mphN/AN/A12 mi
Weather by CustomWeather, © 2016

See weather overviewHow to use our weather pages